AFR604 TFFR-TFFF

Flight info

Callsign AFR604
Flight time 0h 26m
Altitude 13000
Route KATIM2F KATIM DCT KAREX
Aircraft A320/M-SDE2E3FGIJ1RWY/HB1

Departure

Time 2026-05-04 18:29
Airport Maryse Condé International Airport (TFFR)

Arrival

Time 2026-05-04 18:56
Airport Martinique Aimé Césaire International Airport (TFFF)
Time Latitude Longitude Altitude Speed Heading
2026-05-04 17:33 16.26884 -61.52535 24 ft 0 kts
2026-05-04 18:18 16.26882 -61.52535 23 ft 2 kts
2026-05-04 18:19 16.26830 -61.52540 23 ft 4 kts 358°
2026-05-04 18:19 16.26803 -61.52537 25 ft 4 kts 338°
2026-05-04 18:19 16.26786 -61.52524 23 ft 2 kts 282°
2026-05-04 18:20 16.26785 -61.52517 23 ft 0 kts 280°
2026-05-04 18:22 16.26785 -61.52521 23 ft 1 kts 280°
2026-05-04 18:22 16.26787 -61.52533 23 ft 2 kts 280°
2026-05-04 18:23 16.26791 -61.52551 23 ft 3 kts 280°
2026-05-04 18:23 16.26798 -61.52591 23 ft 9 kts 280°
2026-05-04 18:23 16.26810 -61.52656 26 ft 9 kts 281°
2026-05-04 18:23 16.26820 -61.52714 23 ft 8 kts 281°
2026-05-04 18:24 16.26831 -61.52764 23 ft 8 kts 281°
2026-05-04 18:24 16.26843 -61.52830 23 ft 10 kts 281°
2026-05-04 18:24 16.26847 -61.52898 23 ft 9 kts 254°
2026-05-04 18:24 16.26795 -61.52937 23 ft 12 kts 192°
2026-05-04 18:25 16.26708 -61.52955 23 ft 14 kts 191°
2026-05-04 18:25 16.26606 -61.52975 23 ft 16 kts 191°
2026-05-04 18:25 16.26520 -61.53006 25 ft 12 kts 226°
2026-05-04 18:25 16.26517 -61.53102 26 ft 17 kts 281°
2026-05-04 18:26 16.26545 -61.53252 25 ft 24 kts 281°
2026-05-04 18:26 16.26575 -61.53416 25 ft 22 kts 281°
2026-05-04 18:26 16.26603 -61.53564 27 ft 20 kts 281°
2026-05-04 18:26 16.26630 -61.53706 24 ft 21 kts 280°
2026-05-04 18:27 16.26661 -61.53867 19 ft 24 kts 283°
2026-05-04 18:27 16.26694 -61.54032 16 ft 23 kts 281°
2026-05-04 18:27 16.26723 -61.54199 14 ft 24 kts 281°
2026-05-04 18:27 16.26745 -61.54322 10 ft 12 kts 277°
2026-05-04 18:28 16.26719 -61.54394 10 ft 8 kts 261°
2026-05-04 18:28 16.26757 -61.54411 8 ft 4 kts
2026-05-04 18:28 16.26760 -61.54401 9 ft 3 kts 87°
2026-05-04 18:28 16.26758 -61.54390 9 ft 2 kts 100°
2026-05-04 18:29 16.26727 -61.54223 11 ft 58 kts 101°
2026-05-04 18:29 16.26606 -61.53583 27 ft 120 kts 101°
2026-05-04 18:29 16.26421 -61.52582 260 ft 147 kts 102°
2026-05-04 18:29 16.26230 -61.51540 935 ft 147 kts 101°
2026-05-04 18:30 16.25843 -61.49461 2265 ft 145 kts 101°
2026-05-04 18:30 16.25651 -61.48430 2908 ft 145 kts 101°
2026-05-04 18:30 16.25458 -61.47387 3481 ft 153 kts 101°
2026-05-04 18:31 16.25241 -61.46216 3848 ft 176 kts 101°
2026-05-04 18:31 16.24994 -61.44886 4202 ft 198 kts 102°
2026-05-04 18:31 16.24715 -61.43392 4608 ft 222 kts 101°
2026-05-04 18:31 16.24133 -61.41830 5020 ft 247 kts 128°
2026-05-04 18:32 16.22658 -61.40831 5635 ft 266 kts 163°
2026-05-04 18:32 16.20780 -61.40663 6488 ft 276 kts 179°
2026-05-04 18:32 16.18846 -61.40832 7323 ft 281 kts 183°
2026-05-04 18:32 16.16889 -61.41068 8176 ft 284 kts 182°
2026-05-04 18:33 16.14914 -61.41258 8997 ft 287 kts 181°
2026-05-04 18:33 16.12903 -61.41375 9806 ft 291 kts 180°
2026-05-04 18:33 16.10848 -61.41428 10373 ft 304 kts 179°
2026-05-04 18:33 16.08658 -61.41433 10621 ft 326 kts 178°
2026-05-04 18:34 16.06349 -61.41408 11164 ft 335 kts 177°
2026-05-04 18:34 16.04010 -61.41371 11854 ft 339 kts 177°
2026-05-04 18:34 16.01636 -61.41330 12551 ft 343 kts 178°
2026-05-04 18:34 15.99229 -61.41289 12922 ft 346 kts 178°
2026-05-04 18:35 15.96827 -61.41255 13024 ft 343 kts 178°
2026-05-04 18:35 15.94469 -61.41228 13044 ft 336 kts 178°
2026-05-04 18:35 15.92133 -61.41202 13046 ft 335 kts 178°
2026-05-04 18:35 15.89799 -61.41175 13045 ft 336 kts 178°
2026-05-04 18:36 15.87460 -61.41148 13048 ft 335 kts 178°
2026-05-04 18:36 15.85153 -61.41118 13051 ft 334 kts 178°
2026-05-04 18:36 15.82827 -61.41087 13056 ft 334 kts 178°
2026-05-04 18:36 15.80497 -61.41058 13053 ft 335 kts 178°
2026-05-04 18:37 15.78161 -61.41032 13058 ft 336 kts 178°
2026-05-04 18:37 15.75825 -61.41007 13057 ft 335 kts 178°
2026-05-04 18:37 15.73501 -61.40978 13061 ft 334 kts 178°
2026-05-04 18:37 15.71178 -61.40948 13060 ft 334 kts 178°
2026-05-04 18:38 15.68849 -61.40919 13061 ft 335 kts 178°
2026-05-04 18:38 15.66517 -61.40890 13063 ft 335 kts 178°
2026-05-04 18:38 15.64181 -61.40861 13069 ft 336 kts 178°
2026-05-04 18:38 15.61844 -61.40831 13082 ft 336 kts 178°
2026-05-04 18:39 15.59508 -61.40802 13084 ft 336 kts 178°
2026-05-04 18:39 15.57174 -61.40771 13079 ft 335 kts 178°
2026-05-04 18:39 15.54835 -61.40743 13080 ft 335 kts 178°
2026-05-04 18:39 15.52504 -61.40717 13080 ft 334 kts 178°
2026-05-04 18:40 15.50177 -61.40692 13082 ft 335 kts 178°
2026-05-04 18:40 15.48634 -61.40674 13082 ft 335 kts 178°
2026-05-04 18:40 15.45512 -61.40636 13032 ft 335 kts 178°
2026-05-04 18:40 15.43964 -61.40618 13033 ft 336 kts 178°
2026-05-04 18:41 15.41630 -61.40588 13038 ft 335 kts 177°
2026-05-04 18:41 15.39299 -61.40509 13040 ft 335 kts 172°
2026-05-04 18:41 15.37008 -61.40108 13039 ft 334 kts 168°
2026-05-04 18:41 15.34723 -61.39681 13032 ft 333 kts 168°
2026-05-04 18:42 15.32442 -61.39259 13034 ft 333 kts 168°
2026-05-04 18:42 15.30159 -61.38837 13036 ft 333 kts 168°
2026-05-04 18:42 15.27875 -61.38421 13034 ft 332 kts 168°
2026-05-04 18:42 15.25596 -61.38006 13029 ft 333 kts 168°
2026-05-04 18:43 15.23314 -61.37592 13026 ft 333 kts 169°
2026-05-04 18:43 15.21029 -61.37179 13023 ft 333 kts 168°
2026-05-04 18:43 15.18745 -61.36763 13024 ft 333 kts 168°
2026-05-04 18:43 15.16463 -61.36343 13030 ft 333 kts 168°
2026-05-04 18:44 15.14182 -61.35923 13038 ft 333 kts 168°
2026-05-04 18:44 15.12672 -61.35644 13034 ft 333 kts 168°
2026-05-04 18:44 15.09616 -61.35081 13037 ft 334 kts 168°
2026-05-04 18:44 15.07324 -61.34659 13041 ft 336 kts 168°
2026-05-04 18:45 15.05045 -61.34241 12838 ft 329 kts 168°
2026-05-04 18:45 15.02822 -61.33836 12588 ft 320 kts 168°
2026-05-04 18:45 15.00652 -61.33440 12344 ft 314 kts 168°
2026-05-04 18:45 14.98502 -61.33044 12101 ft 313 kts 168°
2026-05-04 18:46 14.96360 -61.32649 11857 ft 312 kts 168°
2026-05-04 18:46 14.94223 -61.32256 11617 ft 311 kts 168°
2026-05-04 18:46 14.92091 -61.31865 11366 ft 310 kts 168°
2026-05-04 18:46 14.89968 -61.31479 11130 ft 309 kts 168°
2026-05-04 18:47 14.87856 -61.31094 10896 ft 308 kts 168°
2026-05-04 18:47 14.85747 -61.30709 10662 ft 306 kts 168°
2026-05-04 18:47 14.83662 -61.30326 10347 ft 302 kts 168°
2026-05-04 18:47 14.81611 -61.30039 10038 ft 299 kts 172°
2026-05-04 18:48 14.79556 -61.29838 9771 ft 294 kts 173°
2026-05-04 18:48 14.77515 -61.29675 9297 ft 295 kts 173°
2026-05-04 18:48 14.75487 -61.29523 8948 ft 289 kts 173°
2026-05-04 18:48 14.73492 -61.29367 8281 ft 286 kts 173°
2026-05-04 18:49 14.71523 -61.29202 7648 ft 281 kts 173°
2026-05-04 18:49 14.69581 -61.29032 7019 ft 277 kts 172°
2026-05-04 18:49 14.67669 -61.28856 6459 ft 278 kts 172°
2026-05-04 18:49 14.65750 -61.28678 6086 ft 275 kts 171°
2026-05-04 18:50 14.63923 -61.28167 5397 ft 270 kts 149°
2026-05-04 18:50 14.62505 -61.27005 4956 ft 253 kts 127°
2026-05-04 18:50 14.61663 -61.25492 4608 ft 236 kts 109°
2026-05-04 18:50 14.61128 -61.23935 4294 ft 224 kts 108°
2026-05-04 18:51 14.60610 -61.22431 4022 ft 220 kts 109°
2026-05-04 18:51 14.60109 -61.20981 3923 ft 209 kts 109°
2026-05-04 18:51 14.59639 -61.19609 3779 ft 197 kts 109°
2026-05-04 18:51 14.59191 -61.18301 3516 ft 190 kts 108°
2026-05-04 18:52 14.58758 -61.17036 3130 ft 186 kts 108°
2026-05-04 18:52 14.58328 -61.15783 2680 ft 185 kts 109°
2026-05-04 18:52 14.57904 -61.14548 2310 ft 177 kts 109°
2026-05-04 18:52 14.57508 -61.13393 2193 ft 165 kts 109°
2026-05-04 18:53 14.57213 -61.12285 2104 ft 156 kts 98°
2026-05-04 18:53 14.57277 -61.11178 1854 ft 156 kts 85°
2026-05-04 18:53 14.57441 -61.10106 1628 ft 145 kts 83°
2026-05-04 18:53 14.57604 -61.09118 1414 ft 135 kts 84°
2026-05-04 18:54 14.57764 -61.08157 1233 ft 135 kts 84°
2026-05-04 18:54 14.57927 -61.07199 1067 ft 134 kts 84°
2026-05-04 18:54 14.58086 -61.06266 888 ft 132 kts 82°
2026-05-04 18:54 14.58246 -61.05339 720 ft 131 kts 79°
2026-05-04 18:55 14.58401 -61.04419 557 ft 129 kts 80°
2026-05-04 18:55 14.58716 -61.02601 211 ft 128 kts 78°
2026-05-04 18:55 14.58872 -61.01695 46 ft 128 kts 79°
2026-05-04 18:56 14.59009 -61.00886 22 ft 93 kts 80°
2026-05-04 18:56 14.59091 -61.00404 18 ft 43 kts 80°
2026-05-04 18:56 14.59136 -61.00152 19 ft 31 kts 79°
2026-05-04 18:56 14.59163 -61.00019 18 ft 8 kts 53°
2026-05-04 18:57 14.59210 -61.00022 19 ft 6 kts 346°
2026-05-04 18:57 14.59244 -61.00031 20 ft 4 kts 347°
2026-05-04 18:57 14.59274 -61.00037 20 ft 6 kts 349°
2026-05-04 18:57 14.59314 -61.00044 20 ft 6 kts 352°
2026-05-04 18:58 14.59345 -61.00048 19 ft 3 kts 352°
2026-05-04 18:58 14.59360 -61.00053 20 ft 2 kts 332°
2026-05-04 18:58 14.59374 -61.00064 19 ft 3 kts 332°
2026-05-04 18:58 14.59400 -61.00062 20 ft 5 kts 17°
2026-05-04 18:59 14.59432 -61.00050 18 ft 5 kts 20°
2026-05-04 18:59 14.59452 -61.00042 18 ft 0 kts 20°
2026-05-04 18:59 14.59453 -61.00042 18 ft 0 kts 20°